Regional Weather Roundup
Issued by NWS State College, PA

Home | Current Version | Previous Version | Text Only | Print | Product List | Glossary On
Versions: 1 2 3 4 5 6 7 8 9 10 11 12 13 14 15 16 17 18 19 20 21 22 23 24 25 26 27 28 29 30 31 32 33 34 35 36 37 38 39 40 41 42 43 44 45 46 47 48 49 50
000
ASUS41 KCTP 280003
RWRCTP

REGIONAL WEATHER ROUNDUP
NATIONAL WEATHER SERVICE STATE COLLEGE PA
800 PM EDT TUE JUN 27 2017

Note: "fair" indicates few or no clouds below 12,000 feet with no
significant weather and/or obstructions to visibility.

* = STATION THAT DOES NOT REPORT PRECIPITATION /E.G. RAIN...SNOW...ETC/
    THUNDER OR FOG.

PAZ002>004-007>009-013>016-020>023-029>032-280100-
WESTERN PENNSYLVANIA

CITY           SKY/WX    TMP DP  RH WIND       PRES   REMARKS
ERIE           FAIR      66  47  50 W10       30.05R
MEADVILLE      FAIR      62  47  57 W7        30.08R
FRANKLIN*      FAIR      61  45  55 NW5       30.09R
NEW CASTLE     FAIR      64  46  52 W5        30.09S
BEAVER COUNTY  PTCLDY    64  46  52 NW3       30.08S
BUTLER*        FAIR      64  45  48 W5        30.08S
PITTSBURGH INT FAIR      67  46  47 NW9       30.08R
PITTSBURGH     FAIR      65  45  48 VRB6      30.08R
INDIANA*       CLEAR     64  48  55 NW6G17    30.10R
LATROBE        MOCLDY    64  48  55 NW7       30.09R
WASHINGTON CO* FAIR      66  45  45 W3        30.11R
$$

PAZ004>006-010>012-017>019-024>028-033>037-041-042-045-046-049>053-280100-
CENTRAL PENNSYLVANIA

CITY           SKY/WX    TMP DP  RH WIND       PRES   REMARKS
BRADFORD       FAIR      57  50  77 W7        30.06R
DUBOIS         CLOUDY    59  47  64 W7        30.07R
CLEARFIELD     FAIR      62  49  62 VRB6      30.07R
JOHNSTOWN      CLOUDY    59  47  64 W7        30.09R
ALTOONA        CLOUDY    65  49  56 NW8       30.07R
STATE COLLEGE  PTCLDY    63  50  63 W7        30.05R
WILLIAMSPORT   FAIR      62  53  72 W6        30.01R
SELINSGROVE    FAIR      65  49  56 NW8       30.03R
FT INDIANTOWN  PTCLDY    69  47  44 W10G21    30.01R
CAPITAL CITY   FAIR      71  45  39 NW12      30.02R
HARRISBURG     FAIR      71  48  43 NW13      30.01R
YORK           FAIR      70  47  43 NW10      30.02R
$$

PAZ038>040-043-044-047-048-054-055-060>062-067>071-280100-
EASTERN PENNSYLVANIA

CITY           SKY/WX    TMP DP  RH WIND       PRES   REMARKS
SCRANTON       CLOUDY    68  50  52 NW6       29.99R
MOUNT POCONO   FAIR      62  46  55 NW6       30.00R
ALLENTOWN      MOCLDY    72  47  40 W7        29.97R
QUAKERTOWN*    FAIR      72  46  40 NW8       29.99R
READING        FAIR      71  49  45 NW14      29.98R
LANCASTER      MOCLDY    73  50  44 NW12      30.00R
COATESVILLE    FAIR      70  48  46 NW12      30.01R
POTTSTOWN      FAIR      70  49  47 NW6       29.99R
BLUE BELL      MOCLDY    72  50  46 NW6       29.99R
DOYLESTOWN     FAIR      71  49  45 NW8       29.97R
WILLOW GROVE   NOT AVBL
NORTH PHILA    FAIR      75  50  41 W7        29.97R
PHILADELPHIA   FAIR      77  48  35 W12       29.97R
$$




USA.gov is the U.S. government's official web portal to all federal, state and local government web resources and services.